Home > Weather > Roskilde > Past weeks

Flag for Denmark Weather for the Past 2 Weeks in Roskilde, Denmark

Now
41 °F

Broken clouds.


Feels Like: 36 °F
Forecast: 35 / 51 °F
Wind: 8 mph from West

Location: Koebenhavn / Roskilde

Current Time: Apr 28, 2016 at 9:53:28 PM

Latest Report: Apr 28, 2016 at 9:20 PM


Visibility: N/A

Pressure: 29.83 "Hg

Humidity: 87%

Dew Point: 37 °F

Location of RoskildeLocation

Historic Weather in Roskilde — Graph

°F

Roskilde Temperature Yesterday

Maximum temperature yesterday: 45 °F (at 1:50 PM)
Minimum temperature yesterday: 32 °F (at 12:50 AM)
Average temperature yesterday: 38 °F

High & Low Weather Summary for the Past Weeks

 TemperatureHumidityPressure
High55 °F (Apr 16, 2:50 PM)100% (Apr 15, 2:20 AM)30.30 "Hg (Apr 15, 2:20 AM)
Low28 °F (Apr 24, 4:20 AM)34% (Apr 23, 5:50 PM)29.36 "Hg (Apr 27, 4:20 AM)
Average43 °F79%29.77 "Hg
* Reported Apr 13 8:20 PM — Apr 28 8:20 PM, Roskilde, Weather by CustomWeather, © 2016

Note: Actual official high and low records may vary slightly from our data, if they occured in-between our weather recording intervals... More about our weather records

Advertising

Roskilde Weather History for the Previous 24 Hours

Scroll right to see more
 ConditionsComfort  
Time TempWeatherWind HumidityBarometerVisibility
8:20 PM
Thu, Apr 28
43 °FPartly sunny.10 mph81%29.83 "HgN/A
7:50 PM43 °FBroken clouds.12 mph81%29.80 "HgN/A
7:20 PM45 °FLight rain. Broken clouds.12 mph76%29.80 "HgN/A
6:50 PM45 °FBroken clouds.13 mph71%29.80 "HgN/A
6:20 PM45 °FPartly sunny.3 mph81%29.80 "HgN/A
5:50 PM45 °FSprinkles. Broken clouds.10 mph76%29.80 "HgN/A
5:20 PM46 °FPartly sunny.3 mph76%29.77 "HgN/A
4:50 PM45 °FSprinkles. Partly sunny.5 mph76%29.77 "HgN/A
4:20 PM45 °FBroken clouds.8 mph81%29.77 "HgN/A
3:50 PM45 °FPassing clouds.7 mph81%29.77 "HgN/A
3:20 PM43 °FPassing clouds.9 mph93%29.77 "HgN/A
2:20 PM41 °FLight rain. Cloudy.9 mph87%29.77 "HgN/A
1:50 PM45 °FMostly cloudy.1 mph71%29.77 "HgN/A
1:20 PM45 °FScattered clouds.3 mph76%29.74 "HgN/A
12:50 PM43 °FScattered clouds.3 mph76%29.74 "HgN/A
12:20 PM41 °FBroken clouds.2 mph87%29.74 "HgN/A
11:50 AM39 °FLight rain. Overcast.5 mph93%29.74 "HgN/A
11:20 AM37 °FLight rain. Broken clouds.6 mph93%29.74 "Hg1 mi
10:20 AM41 °FBroken clouds.5 mph87%29.71 "HgN/A
9:50 AM43 °FMostly cloudy.3 mph81%29.71 "HgN/A
9:20 AM41 °FBroken clouds.5 mph87%29.71 "HgN/A
7:50 AM41 °FPartly sunny.6 mph87%29.71 "HgN/A
7:20 AM39 °FSprinkles. Partly sunny.3 mph87%29.71 "HgN/A
6:50 AM37 °FLight rain. Mostly cloudy.3 mph93%29.68 "HgN/A
5:50 AM39 °FSprinkles. Overcast.1 mph93%29.68 "Hg4 mi
5:20 AM39 °FSprinkles. Partly cloudy.2 mph93%29.68 "HgN/A
4:50 AM37 °FSprinkles. Partly cloudy.3 mph100%29.68 "Hg6 mi
4:20 AM39 °FLight rain. Partly cloudy.3 mph93%29.68 "HgN/A
3:50 AM39 °FOvercast.3 mph93%29.68 "HgN/A
3:20 AM39 °FPartly cloudy.5 mph93%29.68 "HgN/A
2:50 AM39 °FSprinkles. Overcast.7 mph87%29.65 "HgN/A
2:20 AM39 °FRain. Passing clouds.7 mph93%29.65 "HgN/A
1:50 AM39 °FPassing clouds.3 mph93%29.65 "Hg5 mi
1:20 AM39 °FPassing clouds.3 mph93%29.65 "HgN/A
12:20 AM39 °FPartly cloudy.5 mph93%29.65 "HgN/A
11:50 PM
Wed, Apr 27
39 °FPassing clouds.6 mph87%29.65 "HgN/A
11:20 PM41 °FPassing clouds.6 mph87%29.65 "HgN/A
10:50 PM41 °FPartly cloudy.8 mph87%29.65 "HgN/A
10:20 PM39 °FPassing clouds.9 mph93%29.65 "HgN/A
9:50 PM39 °FPassing clouds.9 mph93%29.65 "HgN/A
9:20 PM37 °FPassing clouds.7 mph93%29.62 "HgN/A
Weather by CustomWeather, © 2016

See weather overviewHow to use our weather pages